Regional Weather Roundup
Issued by NWS

Home | Current Version | Previous Version | Graphics & Text | Print | Product List | Glossary On
Versions: 1 2 3 4 5 6 7 8 9 10 11 12 13 14 15 16 17 18 19 20 21 22 23 24 25 26 27 28 29 30 31 32 33 34 35 36 37 38 39 40 41 42 43 44 45 46 47 48 49 50
000
ASUS43 KDMX 281707
RWRIA

WEATHER ROUNDUP FOR IOWA
NATIONAL WEATHER SERVICE DES MOINES IA
1100 AM CST FRI NOV 28 2014

NOTE: "FAIR" INDICATES FEW OR NO CLOUDS BELOW 12,000 FEET WITH NO
SIGNIFICANT WEATHER AND/OR OBSTRUCTIONS TO VISIBILITY.

* - THESE STATIONS ARE NOT NWS STATIONS...THUS NOT UNDER NWS
QUALITY CONTROL.  THEY ALSO DO NOT REPORT WEATHER SUCH
AS PRECIPITATION OR FOG.

IAZ001>003-012>014-020>022-031>034-043>046-281800-
   NORTHWEST IOWA

CITY           SKY/WX    TMP DP  RH WIND       PRES   REMARKS
CARROLL *      SUNNY     34  27  75 S13       29.84F WCI  25
CHEROKEE *     MOSUNNY   32  27  80 SE6       29.83S WCI  26
DENISON *      SUNNY     36  27  69 S9        29.81F WCI  29
LE MARS *      SUNNY     32  25  74 SE5       29.81F WCI  27
ORANGE CITY *  SUNNY     32  25  74 SE3       29.80S
SHELDON *      SUNNY     28  23  80 SE7       29.80F WCI  21
SIOUX CITY     MOSUNNY   36  25  64 S9        29.80F WCI  29
SPENCER        PTSUNNY   25  19  78 SE8       29.84F WCI  16
STORM LAKE *   SUNNY     28  25  86 SE6       29.82S WCI  22
$$

IAZ055>058-069>071-079>083-090>094-281800-
   SOUTHWEST IOWA

CITY           SKY/WX    TMP DP  RH WIND       PRES   REMARKS
ATLANTIC *     SUNNY     36  28  75 S7        29.85F WCI  30
AUDUBON *      SUNNY     34  25  69 S6        29.86F WCI  29
CLARINDA *     SUNNY     41  28  60 S14       29.88F
COUNCIL BLFS * SUNNY     37  28  70 SW12      29.82S WCI  30
CRESTON *      SUNNY     36  28  75 SW15      29.87F WCI  26
HARLAN  *      SUNNY     36  28  75 S7        29.87F WCI  30
LAMONI         SUNNY     39  28  64 S14       29.89F WCI  31
RED OAK *      SUNNY     41  28  60 S13       29.85F
SHENANDOAH *   SUNNY     41  28  60 S14       29.87F
$$

IAZ047>049-059>061-072>074-084-281800-
   CENTRAL IOWA

CITY           SKY/WX    TMP DP  RH WIND       PRES   REMARKS
AMES           MOSUNNY   25  19  78 SE8       29.90F WCI  16
ANKENY *       SUNNY     32  23  69 S9        29.91F WCI  24
CHARITON *     SUNNY     37  28  70 S12       29.91F WCI  30
DES MOINES     PTSUNNY   33  24  69 S8        29.91F WCI  26
GRINNELL*      MOSUNNY   25  21  86 SE9       29.94F WCI  15
KNOXVILLE *    SUNNY     34  25  69 S15       29.91F WCI  24
MARSHALLTOWN   PTSUNNY   23  18  81 SE13      29.93F WCI  11
PELLA *        MOSUNNY   34  25  69 SE5       29.95F WCI  30
PERRY *          N/A     30  25  80 SE10      29.88F WCI  21
$$

IAZ004>006-015-016-023>025-035-036-281800-
   NORTH CENTRAL IOWA

CITY           SKY/WX    TMP DP  RH WIND       PRES   REMARKS
ALGONA *       SUNNY     23  19  86 SE13      29.87F WCI  11
CLARION *      SUNNY     23  21  93 SE13      29.89S WCI  11
ESTHERVILLE    PTSUNNY   20  17  88 SE13      29.84F WCI   7
FORT DODGE *   PTSUNNY   25  19  80 E8        29.88S WCI  16
MASON CITY     CLOUDY    19  15  84 SE13      29.92S WCI   6
FOREST CITY *    N/A     21  19  93 SE12      29.89F WCI   9
IOWA FALLS *     N/A     23  18  80 SE13      29.91F HAZE    WCI  11
$$

IAZ007>011-017>019-026>030-037>042-050>054-066-281800-
   NORTHEAST IOWA

CITY           SKY/WX    TMP DP  RH WIND       PRES   REMARKS
CEDAR RAPIDS   PTSUNNY   25  19  78 S10       29.99F WCI  15
CHARLES CITY * SUNNY     19  14  79 SE7       29.96R WCI  10
CLINTON *      PTSUNNY   25  18  74 S13       30.07F WCI  13
DECORAH *      SUNNY     21  14  73 SE8       29.95F WCI  12
DUBUQUE        PTSUNNY   22  16  78 S20       30.01F WCI   7
MONTICELLO *   SUNNY     25  19  80 SE15      30.00F WCI  12
OELWEIN *      SUNNY     23  18  80 S16       29.97F WCI  10
WATERLOO       PTSUNNY   23  18  81 S16       29.96F WCI  10
$$

IAZ064-065-067-068-078-281800-
   EAST CENTRAL IOWA

CITY           SKY/WX    TMP DP  RH WIND       PRES   REMARKS
DAVENPORT      CLOUDY    27  18  69 SE15      30.04F WCI  15
IOWA CITY      PTSUNNY   25  19  78 SE13      30.02F WCI  14
MT. PLEASANT * MOSUNNY   30  23  74 SE12      30.00F WCI  21
MUSCATINE *    SUNNY     28  21  74 SE12      30.03F WCI  18
QUAD CITIES    CLOUDY    27  20  75 SE13      30.05F WCI  16
$$

IAZ062-063-075>077-085>089-095>099-281800-
   SOUTHEAST IOWA

CITY           SKY/WX    TMP DP  RH WIND       PRES   REMARKS
BURLINGTON     MOSUNNY   31  24  75 S13       30.01F WCI  21
FAIRFIELD *    SUNNY     32  25  74 S13       29.98F WCI  22
FORT MADISON * SUNNY     34  27  75 SE12G20   30.01F WCI  25
KEOKUK *       SUNNY     37  27  65 S13       30.00F WCI  29
OSKALOOSA *      N/A     32  25  74 S13       29.96F WCI  22
CENTERVILLE *    N/A     39  28  65 S8        29.94F WCI  34
OTTUMWA        MOSUNNY   32  24  72 S14       29.95F WCI  22
WASHINGTON *   SUNNY     28  27  93 SE13      29.99F WCI  18
$$

ABBREVIATIONS USED IN REMARKS
   TC - TEMPERATURES IN CELSIUS
  WCI - WIND CHILL INDEX
   HX - HEAT INDEX
  VSB - VISIBILITY
$$




USA.gov is the U.S. government's official web portal to all federal, state and local government web resources and services.